TimeCST,TemperatureF,Dew PointF,Humidity,Sea Level PressureIn,VisibilityMPH,Wind Direction,Wind SpeedMPH,Gust SpeedMPH,PrecipitationIn,Events,Conditions,WindDirDegrees,DateUTC
12:53 AM,46.0,43.0,89,30.24,6.0,SW,5.8,-,N/A,,Clear,220,2012-11-21 06:53:00
1:53 AM,39.9,37.9,93,30.24,4.0,SSW,4.6,-,N/A,,Clear,200,2012-11-21 07:53:00
2:53 AM,42.1,39.0,89,30.23,5.0,SSW,6.9,-,N/A,,Clear,200,2012-11-21 08:53:00
3:53 AM,39.9,37.0,89,30.22,5.0,South,5.8,-,N/A,,Clear,180,2012-11-21 09:53:00
4:53 AM,43.0,41.0,93,30.24,5.0,SSW,6.9,-,N/A,,Clear,210,2012-11-21 10:53:00
5:53 AM,39.0,37.0,93,30.24,3.0,South,4.6,-,N/A,,Clear,190,2012-11-21 11:53:00
6:33 AM,37.4,35.6,93,30.23,2.0,South,5.8,-,N/A,,Clear,190,2012-11-21 12:33:00
6:53 AM,39.0,37.9,96,30.24,2.5,South,6.9,-,N/A,,Clear,180,2012-11-21 12:53:00
7:06 AM,37.4,35.6,93,30.23,1.2,South,9.2,-,N/A,,Clear,170,2012-11-21 13:06:00
7:17 AM,39.2,37.4,93,30.23,2.0,South,8.1,-,N/A,,Clear,190,2012-11-21 13:17:00
7:31 AM,42.8,41.0,93,30.24,3.0,South,8.1,-,N/A,,Clear,190,2012-11-21 13:31:00
7:53 AM,45.0,42.1,90,30.25,4.0,South,9.2,-,N/A,,Clear,190,2012-11-21 13:53:00
8:53 AM,50.0,45.0,83,30.25,5.0,South,9.2,-,N/A,,Haze,190,2012-11-21 14:53:00
9:53 AM,55.9,48.0,75,30.25,7.0,SSW,10.4,-,N/A,,Clear,200,2012-11-21 15:53:00
10:44 AM,59.0,46.4,63,30.25,-9999.0,North,-9999.0,-,N/A,,Partly Cloudy,0,2012-11-21 16:44:00
10:53 AM,59.0,46.9,64,30.25,-9999.0,North,-9999.0,-,N/A,,Clear,0,2012-11-21 16:53:00
11:53 AM,63.0,43.0,48,30.22,10.0,SSW,13.8,-,N/A,,Clear,210,2012-11-21 17:53:00
12:53 PM,66.0,44.1,45,30.19,10.0,SSW,11.5,-,N/A,,Clear,200,2012-11-21 18:53:00
1:53 PM,66.9,42.1,40,30.17,10.0,SW,9.2,-,N/A,,Clear,220,2012-11-21 19:53:00
2:53 PM,66.9,43.0,42,30.14,10.0,SSW,6.9,-,N/A,,Clear,200,2012-11-21 20:53:00
3:53 PM,66.0,43.0,43,30.13,10.0,South,9.2,-,N/A,,Clear,180,2012-11-21 21:53:00
4:53 PM,60.1,41.0,49,30.12,10.0,South,8.1,-,N/A,,Clear,180,2012-11-21 22:53:00
5:53 PM,57.0,39.0,51,30.12,10.0,South,8.1,-,N/A,,Clear,180,2012-11-21 23:53:00
6:53 PM,55.0,39.0,55,30.12,10.0,South,9.2,-,N/A,,Clear,180,2012-11-22 00:53:00
7:53 PM,54.0,39.0,57,30.10,10.0,South,10.4,-,N/A,,Clear,180,2012-11-22 01:53:00
8:53 PM,54.0,39.0,57,30.09,10.0,South,13.8,-,N/A,,Clear,170,2012-11-22 02:53:00
9:53 PM,53.1,37.0,55,30.08,10.0,South,12.7,-,N/A,,Clear,170,2012-11-22 03:53:00
10:53 PM,53.1,37.0,55,30.06,10.0,South,10.4,-,N/A,,Clear,190,2012-11-22 04:53:00
11:53 PM,53.1,37.0,55,30.05,10.0,South,10.4,-,N/A,,Clear,190,2012-11-22 05:53:00